SCP
0 0 0 0 0 0 0 0 0 0 0 0 0 0 0 0 0 0 0 0 0 0 0 0 0 0 0 0 0 0 0 0 0 0 0 0 0 0 0 0 0 0 0
0 0 0 0 0 0 0 0 0 0 0 0 0 0 0 0 0 0 0 0 0 0 0 0 0 0 0 0 0 0 0 0 0 0 0 0 0 0 0 0 0 0 0
0 0 0 0 0 0 0 0 0 0 0 0 0 0 0 0 0 0 0 0 0 0 0 0 0 0 0 0 0 0 0 0 0 0 0 0 0 0 0 0 0 0 0
0 0 0 0 0 0 0 0 0 0 0 0 0 0 0 0 0 0 0 0 0 0 0 0 0 0 0 0 0 0 0 0 0 0 0 0 0 0 0 0 0 0 0
0 0 0 0 0 0 0 0 0 0 0 0 0 0 0 0 0 0 0 0 0 0 0 0 0 0 0 0 0 0 0 0 0 0 0 0 0 0 0 0 0 0 0
0 0 0 0 0 0 0 0 0 0 0 0 0 0 0 0 0 0 0 0 0 0 0 0 0 0 0 0 0 0 0 0 0 0 0 0 0 0 0 0 0 0 0
0 0 0 0 0 0 0 0 0 0 0 0 0 0 0 0 0 0 0 0 0 0 0 0 0 0 0 0 0 0 0 0 0 0 0 0 0 0 0 0 0 0 0
0 0 0 0 0 0 0 0 0 0 0 0 0 0 0 0 0 0 0 0 0 0 0 0 0 0 0 0 0 0 0 0 0 0 0 0 0 0 0 0 0 0 0
0 0 0 0 0 0 0 0 0 0 0 0 0 0 0 0 0 0 0 0 0 0 0 0 0 0 0 0 0 0 0 0 0 0 0 0 0 0 0 0 0 0 0
0 0 0 0 0 0 0 0 0 0 0 0 0 0 0 0 0 0 0 0 0 0 0 0 0 0 0 0 0 0 0 0 0 0 0 0 0 0 0 0 0 0 0
0 0 0 0 0 0 0 0 0 0 0 0 0 0 0 0 0 0 0 0 0 0 0 0 0 0 0 0 0 0 0 0 0 0 0 0 0 0 0 0 0 0 0
0 0 0 0 0 0 0 0 0 0 0 0 0 0 0 0 0 0 0 0 0 0 0 0 0 0 0 0 0 0 0 0 0 0 0 0 0 0 0 0 0 0 0
0 0 0 0 0 0 0 0 0 0 0 0 0 0 0 0 0 0 0 0 0 0 0 0 0 0 0 0 0 0 0 0 0 0 0 0 0 0 0 0 0 0 0
0 0 0 0 0 0 0 0 0 0 0 0 0 0 0 0 0 0 0 0 0 0 0 0 0 0 0 0 0 0 0 0 0 0 0 0 0 0 0 0 0 0 0
0 0 0 0 0 0 0 0 0 0 0 0 0 0 0 0 0 0 0 0 0 0 0 0 0 0 0 0 0 0 0 0 0 0 0 0 0 0 0 0 0 0 0
0 0 0 0 0 0 0 0 0 0 0 0 0 0 0 0 0 0 0 0 0 0 0 0 0 0 0 0 0 0 0 0 0 0 0 0 0 0 0 0 0 0 0
0 0 0 0 0 0 0 0 0 0 0 0 0 0 0 0 0 0 0 0 0 0 0 0 0 0 0 0 0 0 0 0 0 0 0 0 0 0 0 0 0 0 0
0 0 0 0 0 0 0 0 0 0 0 0 0 0 0 0 0 0 0 0 0 0 0 0 0 0 0 0 0 0 0 0 0 0 0 0 0 0 0 0 0 0 0
0 0 0 0 0 0 0 0 0 0 0 0 0 0 0 0 0 0 0 0 0 0 0 0 0 0 0 0 0 0 0 0 0 0 0 0 0 0 0 0 0 0 0
0 0 0 0 0 0 0 0 0 0 0 0 0 0 0 0 0 0 0 0 0 0 0 0 0 0 0 0 0 0 0 0 0 0 0 0 0 0 0 0 0 0 0
0 0 0 0 0 0 0 0 0 0 0 0 0 0 0 0 0 0 0 0 0 0 0 0 0 0 0 0 0 0 0 0 0 0 0 0 0 0 0 0 0 0 0
0 0 0 0 0 0 0 0 0 0 0 0 0 0 0 0 0 0 0 0 0 0 0 0 0 0 0 0 0 0 0 0 0 0 0 0 0 0 0 0 0 0 0
0 0 0 0 0 0 0 0 0 0 0 0 0 0 0 0 0 0 0 0 0 0 0 0 0 0 0 0 0 0 0 0 0 0 0 0 0 0 0 0 0 0 0
0 0 0 0 0 0 0 0 0 0 0 0 0 0 0 0 0 0 0 0 0 0 0 0 0 0 0 0 0 0 0 0 0 0 0 0 0 0 0 0 0 0 0
0 0 0 0 0 0 0 0 0 0 0 0 0 0 0 0 0 0 0 0 0 0 0 0 0 0 0 0 0 0 0 0 0 0 0 0 0 0 0 0 0 0 0
0 0 0 0 0 0 0 0 0 0 0 0 0 0 0 0 0 0 0 0 0 0 0 0 0 0 0 0 0 0 0 0 0 0 0 0 0 0 0 0 0 0 0
Wind_Speed
1 1 0 1 1 1 1 2 2 3 3 4 4 4 5 5 5 5 3 4 5 8 9 10 10 10 10 10 10 11 11 12 11 11 10 10 10 10 9 9 9 9 9
1 1 1 1 1 2 2 2 3 3 3 3 4 4 5 5 5 6 5 4 6 7 8 10 10 10 10 10 10 10 10 11 12 12 12 11 11 11 11 11 10 10 10
2 2 1 1 2 2 2 2 3 3 3 3 4 5 4 5 5 6 6 5 5 6 7 9 9 9 9 9 10 10 9 9 10 11 11 11 11 11 12 12 11 11 11
3 2 2 2 2 2 2 2 2 3 3 3 3 4 4 4 6 6 5 5 4 4 5 6 7 8 9 9 9 9 9 8 8 10 10 10 10 11 11 12 11 11 12
3 2 2 2 2 2 2 2 2 3 3 3 3 4 4 4 4 5 5 5 4 4 4 4 5 6 7 8 9 10 10 8 8 9 10 11 11 12 12 12 11 11 11
3 2 2 3 3 2 2 2 2 2 3 3 4 4 4 4 4 4 4 4 3 4 4 5 4 4 4 6 7 9 9 9 8 8 9 10 11 12 12 11 11 12 12
2 2 2 2 2 2 3 3 3 3 2 3 3 3 3 4 3 3 3 3 3 3 4 4 3 3 3 4 5 7 8 8 8 8 8 9 10 11 12 12 11 12 12
2 2 2 2 3 2 3 3 3 2 2 2 2 3 3 2 2 2 2 2 3 3 3 3 3 4 4 3 2 4 6 8 9 9 9 8 9 9 11 12 12 12 12
2 2 2 2 3 3 2 3 2 3 3 2 2 3 3 3 3 2 2 2 2 3 3 3 3 3 4 3 3 3 4 6 9 10 10 9 9 9 9 10 11 12 12
1 2 2 2 2 2 3 3 2 3 3 3 2 2 3 4 4 3 2 2 3 4 4 3 3 3 4 4 3 4 4 5 8 10 10 10 10 10 11 11 11 11 10
1 2 2 2 2 2 3 3 3 3 3 3 3 3 3 4 5 5 5 4 3 3 4 4 4 3 4 4 4 4 5 6 8 10 11 11 11 10 10 11 10 10 10
1 1 2 2 2 2 3 3 3 3 3 3 3 3 3 3 3 4 6 6 5 4 5 4 4 3 3 4 4 5 6 7 8 10 11 11 10 10 10 10 10 10 10
2 2 2 2 2 2 3 3 3 3 4 4 4 4 4 4 4 5 5 6 6 5 5 4 3 3 3 4 4 6 6 7 8 9 10 11 10 9 9 10 11 10 10
2 2 3 3 3 3 3 3 3 4 4 4 5 5 4 4 4 4 5 5 6 5 5 5 3 3 3 4 5 6 6 6 7 9 10 10 10 9 9 9 10 10 10
3 3 3 3 3 4 4 4 3 4 4 4 4 5 4 4 4 4 4 5 5 6 6 4 3 3 3 4 5 6 6 6 7 8 8 9 9 8 8 9 9 10 10
3 4 4 4 3 4 4 4 4 4 5 4 4 5 5 4 3 3 4 5 5 6 6 4 4 5 4 4 5 6 6 7 6 7 7 8 8 8 8 8 9 10 10
4 4 4 4 4 4 4 4 5 5 5 5 5 5 5 5 4 4 4 4 5 5 7 6 5 5 6 6 5 5 6 6 4 5 6 7 7 8 8 8 8 9 10
5 5 5 5 5 5 5 5 5 5 6 6 5 5 5 4 5 4 4 5 5 6 6 8 6 5 6 6 6 6 5 5 5 5 6 7 7 8 8 7 7 8 9
5 5 5 5 5 5 5 5 6 6 6 6 6 6 6 5 6 4 5 5 5 5 5 6 6 5 5 4 6 6 6 5 5 5 6 6 7 7 8 7 7 8 8
6 6 6 6 6 6 6 6 6 6 6 6 6 6 6 6 6 6 5 6 5 5 5 6 6 5 5 5 4 4 5 4 4 4 5 6 6 7 7 7 7 7 7
6 6 6 6 6 5 5 6 6 6 7 6 6 6 6 6 7 7 5 5 5 5 5 5 5 5 5 4 4 4 5 5 5 4 5 4 4 4 5 5 6 6 7
6 6 6 6 7 6 7 9 8 7 7 7 6 6 6 6 7 9 9 8 7 6 6 6 5 6 6 5 4 4 5 5 5 2 5 5 4 5 4 4 5 6 6
6 6 7 7 7 8 9 10 10 8 7 7 7 6 5 5 7 6 7 8 8 9 10 8 7 7 7 6 6 6 6 6 6 4 5 6 4 5 4 4 6 6 7
6 6 7 7 7 8 9 10 10 9 8 8 7 7 7 6 6 6 6 6 7 7 8 7 7 7 7 6 6 6 6 6 6 4 4 6 5 5 5 5 5 6 7
6 7 7 7 8 8 9 10 10 6 7 8 7 7 7 7 7 8 7 7 7 6 7 8 9 8 7 7 6 4 4 4 5 4 3 4 4 5 5 5 4 6 7
7 6 7 7 8 8 8 10 10 6 6 6 6 7 9 9 9 9 7 7 7 6 5 5 6 6 5 5 6 5 4 4 4 4 2 3 3 4 4 3 4 4 5
Wind_Direction
66 70 22 355 310 304 283 277 269 272 267 263 257 256 256 258 258 255 241 208 243 256 256 255 255 252 248 244 242 240 236 234 234 232 231 232 232 233 238 240 241 244 248
18 16 11 354 336 317 304 284 287 277 271 269 266 263 262 261 261 258 259 229 216 244 257 259 259 258 257 255 252 249 243 237 235 235 234 234 233 234 238 241 242 244 248
18 8 3 355 345 329 309 298 296 286 282 277 271 269 265 262 260 260 258 258 238 220 236 253 259 259 260 260 260 257 252 246 236 235 236 234 234 236 239 242 244 245 247
22 6 3 356 345 335 322 307 304 294 285 284 284 282 274 267 264 263 258 255 256 254 229 234 252 261 263 263 264 264 259 254 242 235 233 233 235 237 239 241 244 246 248
24 5 357 350 340 336 333 321 316 306 296 291 285 280 276 269 265 261 259 260 258 262 263 235 230 250 265 268 270 270 269 265 255 245 238 235 235 238 240 242 244 246 249
19 3 351 350 343 329 331 328 318 312 300 300 291 280 278 275 269 263 263 262 267 268 269 270 253 236 241 264 273 276 279 277 269 257 248 243 239 237 237 240 243 245 248
9 356 349 345 338 332 332 331 325 315 322 316 291 283 265 254 257 262 266 271 277 280 280 281 277 274 256 249 266 280 285 285 281 272 262 255 250 244 242 242 245 248 251
358 346 341 335 334 328 329 334 332 313 318 331 307 291 282 243 224 272 276 281 286 289 289 296 297 289 287 281 298 286 287 286 288 282 275 269 263 257 253 250 248 251 253
348 334 326 325 329 322 318 321 320 312 305 306 303 294 290 295 316 259 270 277 297 304 303 308 303 297 293 288 292 298 301 293 290 287 282 276 271 264 262 261 259 257 256
328 322 314 317 317 314 307 304 303 295 285 287 289 279 286 299 290 291 256 274 298 298 302 307 305 305 302 298 304 321 321 306 297 293 289 282 277 271 266 267 267 266 266
310 310 303 301 297 296 300 300 293 284 283 281 281 280 273 271 268 273 283 291 294 296 299 303 299 298 304 303 303 322 326 307 295 293 290 289 287 285 282 279 274 274 272
265 277 283 280 282 287 290 289 282 274 274 272 268 266 266 268 269 269 275 286 292 296 296 295 290 291 302 304 310 334 318 306 299 293 290 289 290 292 292 290 286 283 280
251 262 274 278 279 279 279 279 278 278 273 268 264 266 265 266 275 276 275 282 287 290 281 273 276 288 300 304 310 328 306 306 304 299 295 294 295 296 296 294 291 285 287
265 269 268 275 279 277 273 270 269 269 267 263 264 265 265 267 267 268 273 279 282 278 269 273 282 291 302 306 320 310 300 309 304 301 301 303 302 301 296 293 294 293 291
263 260 260 265 269 271 270 270 265 266 266 265 267 264 263 266 266 266 268 269 274 282 280 280 282 293 308 306 316 299 300 312 310 307 305 305 304 300 295 292 292 294 295
253 255 254 254 258 260 261 260 263 263 263 263 264 264 263 263 265 264 264 264 264 272 278 290 293 300 298 293 302 299 300 301 295 300 302 304 303 302 298 294 293 293 293
245 248 250 251 252 255 258 258 258 261 261 262 258 259 262 265 265 262 262 265 265 265 271 279 284 293 288 289 294 295 296 294 293 295 302 305 302 300 297 293 295 295 296
241 241 244 246 247 250 254 257 259 259 259 260 260 258 261 261 262 266 264 263 265 266 271 279 282 284 283 289 293 295 295 293 294 297 294 296 295 294 293 291 294 296 299
244 240 239 241 243 245 249 252 256 257 258 259 258 257 261 261 263 263 266 267 267 268 268 274 281 285 284 285 290 293 295 294 294 295 287 285 287 290 289 287 289 295 297
246 244 241 241 242 242 245 248 252 255 257 257 258 258 260 259 262 264 264 266 268 270 270 272 277 281 282 287 285 290 293 294 293 294 291 290 289 283 282 284 288 292 293
247 247 246 246 245 243 241 244 248 251 254 255 254 254 256 260 266 267 268 270 270 270 271 272 275 278 279 283 285 291 290 297 290 288 295 292 291 285 282 276 276 284 287
249 246 243 244 245 244 241 243 250 249 250 252 254 254 254 251 255 259 265 270 271 269 270 269 271 273 278 279 285 283 286 290 289 295 298 295 295 288 286 282 292 294 289
250 248 248 246 247 246 242 243 244 248 249 251 252 253 252 252 255 257 258 259 263 266 268 271 269 270 277 277 278 276 274 280 283 299 298 287 284 283 290 289 290 287 290
248 248 248 248 250 250 244 246 246 244 246 247 247 249 252 253 250 255 258 259 261 262 264 263 267 274 280 283 276 275 279 281 281 277 279 281 289 289 292 283 281 283 291
253 251 251 249 250 251 244 246 246 245 243 246 246 246 249 250 250 253 256 259 263 265 264 266 272 278 279 278 277 269 268 270 277 277 273 276 289 300 292 283 276 274 284
254 256 254 252 251 253 246 243 241 241 243 245 245 243 243 249 252 250 250 252 259 264 266 263 265 270 270 267 263 255 258 261 273 279 271 282 286 302 293 285 294 290 284